When you browse on this site, cookies collect data to enhance your experience and personalize the content and advertising you see.
Visit our Privacy Policy to learn more. By continuing to use the site, you agree to this use of cookies and data.
  • In Österreich
  • Länderverzeichnis
  • Für 7 Tage
  • Wassertemperatur
  • Satellitenkarten
  • Wetterkarte
  • News
  • Widgets
  • user-avatar
    Anmelden

    Stündliche Wetter Zamoshe

    Heute, 24 Juli, Mittwoch

    Zeit Temperatur Niederschläge Wind Luftdruck Luftfeuchtigkeit
    00:00 +16°C° 0 mm 3 m/S 747 mmHg 96%
    01:00 +16°C° 0 mm 3 m/S 747 mmHg 97%
    02:00 +14°C° 0 mm 3 m/S 747 mmHg 97%
    03:00 +14°C° 0 mm 3 m/S 747 mmHg 97%
    04:00 +14°C° 0 mm 3 m/S 747 mmHg 97%
    05:00 +14°C° 0 mm 3 m/S 747 mmHg 97%
    06:00 +16°C° 0 mm 3 m/S 747 mmHg 92%
    07:00 +18°C° 0 mm 3 m/S 747 mmHg 88%
    08:00 +19°C° 0 mm 3 m/S 747 mmHg 83%
    09:00 +21°C° 0 mm 4 m/S 748 mmHg 75%
    10:00 +22°C° 0 mm 4 m/S 748 mmHg 66%
    11:00 +25°C° 0 mm 4 m/S 748 mmHg 58%
    12:00 +26°C° 0 mm 4 m/S 748 mmHg 55%
    13:00 +26°C° 0 mm 4 m/S 748 mmHg 53%
    14:00 +27°C° 0 mm 4 m/S 748 mmHg 51%
    15:00 +26°C° 0 mm 4 m/S 748 mmHg 53%
    16:00 +26°C° 0 mm 4 m/S 748 mmHg 54%
    17:00 +26°C° 0 mm 3 m/S 748 mmHg 56%
    18:00 +24°C° 0.1 mm 3 m/S 748 mmHg 65%
    19:00 +21°C° 0.1 mm 3 m/S 748 mmHg 74%
    20:00 +19°C° 0.1 mm 2 m/S 748 mmHg 82%
    21:00 +18°C° 0 mm 2 m/S 748 mmHg 85%
    22:00 +17°C° 0 mm 2 m/S 749 mmHg 87%
    23:00 +16°C° 0 mm 2 m/S 749 mmHg 89%

    Morgen, 25 Juli, Donnerstag

    Zeit Temperatur Niederschläge Wind Luftdruck Luftfeuchtigkeit
    00:00 +16°C° 0 mm 2 m/S 749 mmHg 90%
    01:00 +15°C° 0 mm 2 m/S 749 mmHg 91%
    02:00 +15°C° 0 mm 2 m/S 749 mmHg 93%
    03:00 +15°C° 0 mm 2 m/S 749 mmHg 91%
    04:00 +14°C° 0 mm 2 m/S 749 mmHg 90%
    05:00 +14°C° 0 mm 2 m/S 749 mmHg 89%
    06:00 +16°C° 0 mm 2 m/S 749 mmHg 84%
    07:00 +18°C° 0 mm 2 m/S 749 mmHg 78%
    08:00 +20°C° 0 mm 2 m/S 749 mmHg 72%
    09:00 +21°C° 0.4 mm 2 m/S 749 mmHg 72%
    10:00 +21°C° 0.4 mm 2 m/S 749 mmHg 72%
    11:00 +23°C° 0.4 mm 2 m/S 749 mmHg 71%
    12:00 +23°C° 1.1 mm 2 m/S 749 mmHg 71%
    13:00 +24°C° 1.1 mm 3 m/S 749 mmHg 71%
    14:00 +24°C° 1.1 mm 3 m/S 748 mmHg 71%
    15:00 +24°C° 0.8 mm 3 m/S 748 mmHg 73%
    16:00 +24°C° 0.8 mm 3 m/S 748 mmHg 74%
    17:00 +22°C° 0.8 mm 3 m/S 747 mmHg 75%
    18:00 +21°C° 0.2 mm 2 m/S 747 mmHg 80%
    19:00 +19°C° 0.2 mm 2 m/S 747 mmHg 86%
    20:00 +18°C° 0.2 mm 2 m/S 747 mmHg 91%
    21:00 +17°C° 0 mm 2 m/S 747 mmHg 92%
    22:00 +16°C° 0 mm 2 m/S 747 mmHg 94%
    23:00 +16°C° 0 mm 2 m/S 747 mmHg 95%

    übermorgen, 26 Juli, Freitag

    Zeit Temperatur Niederschläge Wind Luftdruck Luftfeuchtigkeit
    00:00 +15°C° 0 mm 2 m/S 747 mmHg 96%
    01:00 +15°C° 0 mm 2 m/S 747 mmHg 96%
    02:00 +14°C° 0 mm 2 m/S 747 mmHg 97%
    03:00 +14°C° 0 mm 2 m/S 747 mmHg 97%
    04:00 +14°C° 0 mm 2 m/S 747 mmHg 98%
    05:00 +14°C° 0 mm 2 m/S 747 mmHg 98%
    06:00 +15°C° 0 mm 2 m/S 747 mmHg 96%
    07:00 +16°C° 0 mm 2 m/S 747 mmHg 93%
    08:00 +17°C° 0 mm 3 m/S 747 mmHg 91%
    09:00 +18°C° 0 mm 3 m/S 747 mmHg 86%
    10:00 +19°C° 0 mm 3 m/S 747 mmHg 80%
    11:00 +20°C° 0 mm 3 m/S 747 mmHg 75%
    12:00 +21°C° 0.3 mm 3 m/S 747 mmHg 74%
    13:00 +22°C° 0.3 mm 3 m/S 746 mmHg 72%
    14:00 +23°C° 0.3 mm 4 m/S 746 mmHg 71%
    15:00 +23°C° 0.7 mm 4 m/S 746 mmHg 75%
    16:00 +22°C° 0.7 mm 3 m/S 746 mmHg 79%
    17:00 +22°C° 0.7 mm 3 m/S 746 mmHg 83%
    18:00 +21°C° 0.8 mm 3 m/S 746 mmHg 87%
    19:00 +20°C° 0.8 mm 3 m/S 746 mmHg 90%
    20:00 +18°C° 0.8 mm 3 m/S 746 mmHg 94%
    21:00 +18°C° 0.6 mm 3 m/S 746 mmHg 95%
    22:00 +18°C° 0.6 mm 3 m/S 746 mmHg 96%
    23:00 +17°C° 0.6 mm 3 m/S 746 mmHg 97%

    27 Juli, Samstag

    Zeit Temperatur Niederschläge Wind Luftdruck Luftfeuchtigkeit
    00:00 +17°C° 0 mm 3 m/S 746 mmHg 97%
    01:00 +17°C° 0 mm 3 m/S 746 mmHg 97%
    02:00 +17°C° 0 mm 2 m/S 745 mmHg 97%
    03:00 +17°C° 0.5 mm 2 m/S 745 mmHg 98%
    04:00 +17°C° 0.5 mm 2 m/S 745 mmHg 98%
    05:00 +18°C° 0.5 mm 1 m/S 745 mmHg 98%
    06:00 +17°C° 0.7 mm 2 m/S 745 mmHg 98%
    07:00 +17°C° 0.7 mm 2 m/S 745 mmHg 98%
    08:00 +17°C° 0.7 mm 2 m/S 745 mmHg 98%
    09:00 +18°C° 0.5 mm 3 m/S 745 mmHg 96%
    10:00 +19°C° 0.5 mm 3 m/S 745 mmHg 94%
    11:00 +20°C° 0.5 mm 3 m/S 745 mmHg 93%
    12:00 +21°C° 0.9 mm 4 m/S 744 mmHg 90%
    13:00 +22°C° 0.9 mm 5 m/S 744 mmHg 87%
    14:00 +23°C° 0.9 mm 5 m/S 744 mmHg 85%
    15:00 +22°C° 1 mm 5 m/S 744 mmHg 86%
    16:00 +22°C° 1 mm 4 m/S 744 mmHg 87%
    17:00 +21°C° 1 mm 4 m/S 744 mmHg 89%
    18:00 +21°C° 0.2 mm 3 m/S 744 mmHg 91%
    19:00 +20°C° 0.2 mm 3 m/S 744 mmHg 93%
    20:00 +19°C° 0.2 mm 2 m/S 744 mmHg 95%
    21:00 +19°C° 0 mm 2 m/S 744 mmHg 95%
    22:00 +18°C° 0 mm 2 m/S 744 mmHg 96%
    23:00 +18°C° 0 mm 2 m/S 744 mmHg 97%

    28 Juli, Sonntag

    Zeit Temperatur Niederschläge Wind Luftdruck Luftfeuchtigkeit
    00:00 +18°C° 0 mm 2 m/S 744 mmHg 97%
    01:00 +17°C° 0 mm 2 m/S 744 mmHg 97%
    02:00 +17°C° 0 mm 2 m/S 744 mmHg 97%
    03:00 +17°C° 0 mm 2 m/S 744 mmHg 97%
    04:00 +17°C° 0 mm 2 m/S 744 mmHg 97%
    05:00 +17°C° 0 mm 2 m/S 744 mmHg 97%
    06:00 +18°C° 0 mm 2 m/S 744 mmHg 94%
    07:00 +20°C° 0 mm 3 m/S 744 mmHg 91%
    08:00 +21°C° 0 mm 3 m/S 744 mmHg 87%
    09:00 +24°C° 0.2 mm 3 m/S 744 mmHg 80%
    10:00 +25°C° 0.2 mm 4 m/S 744 mmHg 73%
    11:00 +27°C° 0.2 mm 4 m/S 744 mmHg 66%
    12:00 +27°C° 0.2 mm 4 m/S 744 mmHg 65%
    13:00 +27°C° 0.2 mm 4 m/S 744 mmHg 64%
    14:00 +28°C° 0.2 mm 4 m/S 743 mmHg 62%
    15:00 +27°C° 0.5 mm 4 m/S 743 mmHg 67%
    16:00 +27°C° 0.5 mm 3 m/S 743 mmHg 72%
    17:00 +27°C° 0.5 mm 3 m/S 743 mmHg 76%
    18:00 +25°C° 0.1 mm 3 m/S 743 mmHg 81%
    19:00 +22°C° 0.1 mm 3 m/S 744 mmHg 87%
    20:00 +20°C° 0.1 mm 3 m/S 744 mmHg 92%
    21:00 +19°C° 0 mm 3 m/S 744 mmHg 92%
    22:00 +18°C° 0 mm 3 m/S 744 mmHg 93%
    23:00 +17°C° 0 mm 3 m/S 745 mmHg 93%

    29 Juli, Montag

    Zeit Temperatur Niederschläge Wind Luftdruck Luftfeuchtigkeit
    00:00 +17°C° 0 mm 3 m/S 745 mmHg 92%
    01:00 +16°C° 0 mm 3 m/S 745 mmHg 91%
    02:00 +14°C° 0 mm 3 m/S 745 mmHg 90%
    03:00 +13°C° 0 mm 3 m/S 745 mmHg 91%
    04:00 +12°C° 0 mm 3 m/S 745 mmHg 92%
    05:00 +12°C° 0 mm 2 m/S 746 mmHg 93%
    06:00 +12°C° 0 mm 3 m/S 746 mmHg 85%
    07:00 +14°C° 0 mm 3 m/S 746 mmHg 77%
    08:00 +16°C° 0 mm 3 m/S 747 mmHg 69%
    09:00 +17°C° 0 mm 4 m/S 747 mmHg 65%
    10:00 +18°C° 0 mm 4 m/S 747 mmHg 60%
    11:00 +19°C° 0 mm 4 m/S 747 mmHg 55%
    12:00 +19°C° 0 mm 4 m/S 747 mmHg 54%
    13:00 +20°C° 0 mm 4 m/S 747 mmHg 53%
    14:00 +20°C° 0 mm 4 m/S 747 mmHg 52%
    15:00 +20°C° 0 mm 3 m/S 747 mmHg 54%
    16:00 +19°C° 0 mm 3 m/S 747 mmHg 56%
    17:00 +19°C° 0 mm 3 m/S 747 mmHg 59%
    18:00 +18°C° 0 mm 2 m/S 748 mmHg 64%
    19:00 +16°C° 0 mm 2 m/S 748 mmHg 70%
    20:00 +15°C° 0 mm 1 m/S 748 mmHg 76%
    21:00 +14°C° 0 mm 1 m/S 748 mmHg 78%
    22:00 +13°C° 0 mm 2 m/S 748 mmHg 80%
    23:00 +13°C° 0 mm 2 m/S 749 mmHg 82%
    Mehr zeigen